STARLINK-30511, 57978

Orbit data source: Space-Track

STARLINK-30511, 57978 is a payload satellite owned by SpaceX/Seattle (US) in LEO that was launched on Sat, 30 Sep 2023 UTC via an FALCON 9 launch vehicle from the Air Force Eastern Test Range (AFETR). Payload-class satellites include a variety of spacecraft equipped with specific instruments for various scientific and technological missions. These include communications satellites like Starlink; space stations such as the ISS; scientific satellites like the Hubble; Earth observation satellites from companies like Planet Labs, Umbra, and HawkEye 360; GPS; miniature CubeSats for education and research; and military/defense satellites.

Loading next visibility...
Identifier
57978, 2023-151Q
Orbit
LEO
Country
Flag of USUS
Related business
Manufacturer
SpaceX/Seattle
Mission
Operational Commercial Communications
Bus & Motor
STARLINK V2M, Unknown motor
Mass
730 kg wet, ~700 kg dry
Launch date (UTC)
2023-09-30 (3 years ago)
Launch vehicle
FALCON 9
Launch site
Air Force Eastern Test Range (AFETR)
Object type
Payload
Rocket body
Debris
Shape & HBR
Box + 2 Pan, 17.7 m
Radar Cross Section
33.884 m², Large (>1 m²)

Expand to show TLE details & history
Last TLE update: 2 days ago

TLE from 2 days ago
0 STARLINK-30511
1 57978U 23151Q   26174.55730060  .00000971  00000-0  44829-4 0  9992
2 57978  43.0036 112.8738 0001555 268.9798  91.0875 15.27578656151783
Epoch: 2026-06-23T13:22Z
TLE epoch observation values (Epoch: 2026-06-23T13:22:30.771Z)
Latitude
-0.00007°
Longitude
0.51836°
Altitude
482.849 km
Speed
7.626 km/s
True Right ascension
07h 31m 29s
True Declination
0° 00' 00"
Sunlit
Object was in daylight at epoch
Visualization orbit readout
Latitude
Unknown
Longitude
Unknown
Altitude
Unknown
Speed
Unknown
Apparent Right ascension
Unknown
Apparent Declination
Unknown
Sunlit
N/A
Visualization observer readout
Local Sidereal Time
13:39:31
Azimuth
Unknown
Elevation
Unknown
Doppler factor
Unknown
Orbital elements
Apogee altitude
486.065 km
Perigee altitude
483.93 km
Semi-major axis
6,863.135 km
Eccentricity
0.00016
Inclination
43.0036°
RAAN
112.8738°
Arg. of periapsis
268.9798°
True anomaly
91.10532°
Mean anomaly
91.0875°
Eccentric anomaly
91.09641°
Mean motion
3.81733 °/min
Orbital period
94.31 mins
BSTAR
0.000044829
Loading maneuver chart data...
Computing Atmospheric mass density...
Loading historical data...
Loading historical data...
Loading historical data...
Loading historical data...
Loading historical data...
Loading historical data...
Loading historical data...

Documentation

Showing up to 5 results
|